Torna al catalogo

FENGYUN 1C DEB

AttivoLEO
NORAD 36701·DEBRIS·🇨🇳 China

Lanciato May 10, 1999 da Taiyuan Satellite Launch Center

Loading…

Prossimi Passaggi (prossime 24 ore)

TLE

In scadenzaSource: Space-Track

Epoca: Sep 11, 2026, 08:15 UTC

1 36701U 99025DZX 26254.34404768  .00001072  00000-0  98761-3 0  9991
2 36701 102.7536 302.6327 0255379 352.3376   7.3892 13.72554643648777

Traccia FENGYUN 1C DEB in tempo reale con AllMySat

Download on the App Store